Location: Albuquerque Trailhead
(34.7934°N, 106.3736°W)
Time: 12:27:36
(UTC+00:00)

Cosmos 2151 Rocket - Pass Details

Date: 20 June 2021
Orbit: 617 x 642 km, 82.5° (Epoch: 30 July)

Event Time Altitude Azimuth Distance (km) Brightness Sun altitude
Rises 02:57:52 0° 353° (N) 2,897 7.7 -7.1°
Reaches altitude 10° 03:00:06 10° 353° (N) 1,986 6.8 -7.5°
Maximum altitude 03:04:30 87° 268° (W) 623 3.6 -8.2°
Drops below altitude 10° 03:08:52 10° 176° (S) 1,974 5.8 -8.9°
Enters shadow 03:10:54 - 175° (S) 2,804 6.5 -9.2°
